Regional Weather Roundup
Issued by NWS

Home | Current Version | Previous Version | Graphics & Text | Print | Product List | Glossary On
Versions: 1 2 3 4 5 6 7 8 9 10 11 12 13 14 15 16 17 18 19 20 21 22 23 24 25 26 27 28 29 30 31 32 33 34 35 36 37 38 39
000
ASUS43 KDMX 261307
RWRIA

WEATHER ROUNDUP FOR IOWA
NATIONAL WEATHER SERVICE DES MOINES IA
700 AM CST FRI DEC 26 2014

NOTE: "FAIR" INDICATES FEW OR NO CLOUDS BELOW 12,000 FEET WITH NO
SIGNIFICANT WEATHER AND/OR OBSTRUCTIONS TO VISIBILITY.

* - THESE STATIONS ARE NOT NWS STATIONS...THUS NOT UNDER NWS
QUALITY CONTROL.  THEY ALSO DO NOT REPORT WEATHER SUCH
AS PRECIPITATION OR FOG.

IAZ001>003-012>014-020>022-031>034-043>046-261400-
   NORTHWEST IOWA

CITY           SKY/WX    TMP DP  RH WIND       PRES   REMARKS
CARROLL *      CLOUDY    32  32 100 N17       29.88S FOG     WCI  21
CHEROKEE *     CLOUDY    32  32 100 N10       29.92S WCI  24
DENISON *      CLOUDY    32  32 100 N12G18    29.88S WCI  23
LE MARS *      CLOUDY    30  28  93 N15G22    29.97R WCI  19
ORANGE CITY *  CLOUDY    30  27  86 N14       29.94R WCI  20
SHELDON *      CLOUDY    28  28 100 N20       29.93S WCI  15
SIOUX CITY     CLOUDY    32  28  85 N18G24    29.96R WCI  20
SPENCER        CLOUDY    31  29  92 N15       29.93R WCI  20
STORM LAKE *   CLOUDY    32  32 100 N13G18    29.91R FOG     WCI  22
$$

IAZ055>058-069>071-079>083-090>094-261400-
   SOUTHWEST IOWA

CITY           SKY/WX    TMP DP  RH WIND       PRES   REMARKS
ATLANTIC *     CLOUDY    32  32 100 N16G22    29.88R WCI  21
AUDUBON *      CLOUDY    30  27  86 N13       29.89R FOG     WCI  20
CLARINDA *     CLOUDY    32  32 100 N9        29.92R WCI  24
COUNCIL BLFS * CLOUDY    32  32 100 N13G20    29.89R FOG     WCI  22
CRESTON *      CLEAR     32  30  93 W5        29.87R WCI  27
HARLAN  *      CLOUDY    32  32 100 N14G22    29.92R WCI  22
LAMONI         PTCLDY    35  30  82 S8        29.87R WCI  29
RED OAK *      CLOUDY    32  32 100 N13       29.90R WCI  22
SHENANDOAH *   CLOUDY    32  32 100 N13       29.92R WCI  22
$$

IAZ047>049-059>061-072>074-084-261400-
   CENTRAL IOWA

CITY           SKY/WX    TMP DP  RH WIND       PRES   REMARKS
AMES           CLEAR     27  26  96 CALM      29.87R
ANKENY *       CLEAR     30  30 100 CALM      29.88R
CHARITON *     CLOUDY    37  32  81 S13       29.88R WCI  29
DES MOINES     PTCLDY    35  29  78 S3        29.88R
GRINNELL*      CLEAR     34  30  86 S7        29.88R WCI  28
KNOXVILLE *    CLEAR     37  30  75 S10       29.86R WCI  30
MARSHALLTOWN   CLEAR     34  29  82 S5        29.86R WCI  30
PELLA *        PTCLDY    36  30  80 S3        29.89R
PERRY *          N/A     28  28 100 NW8       29.87R WCI  20
$$

IAZ004>006-015-016-023>025-035-036-261400-
   NORTH CENTRAL IOWA

CITY           SKY/WX    TMP DP  RH WIND       PRES   REMARKS
ALGONA *       CLOUDY    32  32 100 N12G18    29.90R FOG     WCI  23
CLARION *      FOG       27  28 100 N9        29.88R VSB 0   WCI  17
ESTHERVILLE    CLOUDY    30  30 100 N17       29.92R FOG     WCI  18
FORT DODGE *   CLOUDY    30  28  93 N9        29.89R WCI  22
MASON CITY     CLEAR     21  20  96 W8        29.88R WCI  11
FOREST CITY *  FOG       30  30 100 NW8       29.88R VSB 1/4 WCI  23
IOWA FALLS *     N/A     30  28  93 CALM      29.87R
$$

IAZ007>011-017>019-026>030-037>042-050>054-066-261400-
   NORTHEAST IOWA

CITY           SKY/WX    TMP DP  RH WIND       PRES   REMARKS
CEDAR RAPIDS   CLEAR     35  31  85 S9        29.88R WCI  28
CHARLES CITY * CLEAR     32  30  93 SE5       29.88R WCI  27
CLINTON *      PTCLDY    39  32  75 SW9       29.96R WCI  33
DECORAH *      PTCLDY    34  32  93 S5        29.87R WCI  30
DUBUQUE        CLEAR     33  30  88 S12       29.90R WCI  24
MONTICELLO *   CLEAR     36  34  93 S5        29.90R WCI  32
OELWEIN *      CLEAR     32  30  93 S6        29.89R WCI  26
WATERLOO       CLEAR     32  29  88 S3        29.88R
$$

IAZ064-065-067-068-078-261400-
   EAST CENTRAL IOWA

CITY           SKY/WX    TMP DP  RH WIND       PRES   REMARKS
DAVENPORT      MOCLDY    40  32  73 S14       29.93R WCI  32
IOWA CITY      PTCLDY    36  31  82 S5        29.92R WCI  32
MT. PLEASANT * CLOUDY    39  34  81 S12       29.94R WCI  32
MUSCATINE *    CLEAR     41  34  75 S9        29.93R
QUAD CITIES    CLOUDY    41  33  73 S12G17    29.93R
$$

IAZ062-063-075>077-085>089-095>099-261400-
   SOUTHEAST IOWA

CITY           SKY/WX    TMP DP  RH WIND       PRES   REMARKS
BURLINGTON     CLOUDY    40  35  83 S12       29.95R WCI  33
FAIRFIELD *    PTCLDY    41  32  70 S10       29.91S
FORT MADISON * CLEAR     41  36  81 S10       29.96R
KEOKUK *       CLEAR     43  36  75 S14G21    29.94S
OSKALOOSA *      N/A     36  30  80 S10       29.89R WCI  28
CENTERVILLE *  CLEAR     41  32  70 S12       29.90R
OTTUMWA        MOCLDY    38  31  76 S12       29.89R WCI  30
WASHINGTON *   CLEAR     39  36  87 S12       29.91R WCI  32
$$

ABBREVIATIONS USED IN REMARKS
   TC - TEMPERATURES IN CELSIUS
  WCI - WIND CHILL INDEX
   HX - HEAT INDEX
  VSB - VISIBILITY
$$



USA.gov is the U.S. government's official web portal to all federal, state and local government web resources and services.